Location: Holmbach
(49.5093°N, 8.8411°E)
Time: 20:34:17
(UTC+00:00)

Cosmos 841 Rocket - Pass Details

Date: 17 June 2025
Orbit: 742 x 768 km, 74.0° (Epoch: 16 July)

Event Time Altitude Azimuth Distance (km) Brightness Sun altitude
Rises 22:55:49 0° 335° (NNW) 3,249 8.2 -16.8°
Reaches altitude 10° 22:58:12 10° 335° (NNW) 2,317 7.1 -16.8°
Maximum altitude 23:03:28 85° 249° (WSW) 775 3.4 -16.9°
Enters shadow 23:06:15 29° 162° (SSE) 1,387 4.3 -17.0°
